This demonstration page uses our WeatherBlox Daily Observations layout. Learn more.

Left ArrowRight Arrow

Hourly Observations for October 14, 2018

Temp ( °F °C ) Dew Point ( °F °C ) Humidity (%) Winds ( mph kmh ) Pressure ( in mb ) Visibility ( mi km ) Precip ( " mm )
12:47 am 00:47 Cloudy with Light Rain 39 4 39 4 100 100 NNE 22 35 30.00 1016 4 6 0.00 0.00
12:57 am 00:57 Cloudy with Light Rain 40 4.4 38 3.3 93 93 NNE 23 37 29.94 1014 4 6 0.00 0.03
1:57 am 01:57 Cloudy with Light Rain 38 3.3 37 2.8 97 97 NNE 21 33 29.97 1015 6 10 0.01 0.25
2:57 am 02:57 Cloudy with Light Rain 37 2.8 36 2.2 96 96 NNE 20 31 29.98 1015 4 6 0.00 0.03
3:57 am 03:57 Cloudy with Light Rain 35 1.7 33 0.6 93 93 N 29 46 30.00 1016 5 8 0.00 0.03
4:57 am 04:57 Cloudy with Light Rain 33 0.6 32 0 96 96 N 26 43 30.07 1018 9 14 0.00 0.03
5:43 am 05:43 Cloudy with Light Wintry Mix 32 0 30 -1 93 93 N 29 46 30.18 1022 10 16 0.00 0.00
5:55 am 05:55 Cloudy with Light Wintry Mix 32 0 30 -1 93 93 N 30 48 30.18 1022 10 16 0.00 0.00
5:57 am 05:57 Cloudy with Light Wintry Mix 32 0 30 -1.1 92 92 N 28 44 30.10 1019 10 16 0.00 0.03
6:57 am 06:57 Cloudy with Light Wintry Mix 31 -0.6 28 -2.2 89 89 N 25 41 30.15 1021 8 13 0.00 0.03
7:00 am 07:00 Cloudy with Light Wintry Mix 30 -1 28 -2 93 93 N 26 43 30.24 1024 5 8 0.00 0.03
7:07 am 07:07 Windy with Snow Likely 30 -1 28 -2 93 93 N 26 43 30.27 1025 3 4 0.00 0.00
7:22 am 07:22 Windy with Snow Likely 30 -1 28 -2 93 93 N 22 35 30.24 1024 2 2 0.00 0.03
7:57 am 07:57 Windy with Snow Likely 29 -1.7 28 -2.2 96 96 N 24 39 30.17 1022 1 2 0.01 0.25
8:11 am 08:11 Windy with Snow Likely 28 -2 28 -2 100 100 N 23 37 30.27 1025 1 2 0.00 0.00
8:26 am 08:26 Windy with Snow Likely 28 -2 28 -2 100 100 N 21 33 30.27 1025 1 1 0.00 0.03
8:37 am 08:37 Windy with Snow Likely 28 -2 28 -2 100 100 N 21 33 30.30 1026 1 2 0.00 0.00
8:49 am 08:49 Windy with Snow Likely 28 -2 28 -2 100 100 N 23 37 30.30 1026 1 1 0.00 0.00
8:57 am 08:57 Cloudy with Snow 29 -1.7 28 -2.2 96 96 N 21 33 30.21 1023 1 1 0.00 0.03
9:09 am 09:09 Windy with Snow Likely 28 -2 27 -3 93 93 N 21 33 30.30 1026 1 1 0.00 0.00
9:13 am 09:13 Windy with Snow Likely 28 -2 27 -3 93 93 N 21 33 30.30 1026 1 2 0.00 0.00
9:20 am 09:20 Windy with Snow Likely 28 -2 28 -2 100 100 N 22 35 30.30 1026 3 5 0.00 0.03
9:31 am 09:31 Cloudy with Light Snow 28 -2 28 -2 100 100 N 18 30 30.30 1026 4 6 0.00 0.00
9:48 am 09:48 Cloudy with Light Snow 30 -1 28 -2 93 93 N 17 28 30.30 1026 4 6 0.00 0.03
9:57 am 09:57 Cloudy with Light Snow 30 -1.1 28 -2.2 92 92 N 15 24 30.24 1024 8 13 0.00 0.03
10:05 am 10:05 Windy with Snow Likely 30 -1 28 -2 93 93 N 20 31 30.33 1027 9 14 0.00 0.00
10:35 am 10:35 Cloudy 30 -1 28 -2 93 93 N 18 30 30.33 1027 10 16 0.00 0.00
10:57 am 10:57 Cloudy 32 0 28 -2.2 85 85 N 18 30 30.24 1024 10 16 0.00 0.03
11:57 am 11:57 Cloudy 32 0 27 -2.8 82 82 N 16 26 30.27 1025 10 16 0.00 0.00
12:57 pm 12:57 Cloudy 33 0.6 27 -2.8 78 78 N 20 31 30.27 1025 10 16 0.00 0.00
1:57 pm 13:57 Cloudy 32 0 27 -2.8 82 82 NNW 16 26 30.28 1026 10 16 0.00 0.00
2:57 pm 14:57 Cloudy 32 0 27 -2.8 82 82 NNW 18 30 30.27 1025 10 16 0.00 0.00
3:57 pm 15:57 Cloudy 32 0 27 -2.8 82 82 N 22 35 30.28 1025 10 16 0.00 0.03
4:57 pm 16:57 Cloudy 31 -0.6 26 -3.3 82 82 N 18 30 30.30 1026 10 16 0.00 0.00
5:57 pm 17:57 Cloudy 31 -0.6 25 -3.9 79 79 N 15 24 30.32 1027 10 16 0.00 0.00
6:57 pm 18:57 Cloudy 30 -1.1 24 -4.4 79 79 N 15 24 30.33 1027 10 16 0.00 0.00
7:57 pm 19:57 Cloudy 30 -1.1 23 -5 75 75 N 16 26 30.35 1028 10 16 0.00 0.00
8:14 pm 20:14 Cloudy 30 -1 23 -5 75 75 N 17 28 30.39 1029 10 16 0.00 0.00
8:57 pm 20:57 Cloudy 30 -1.1 23 -5 75 75 N 15 24 30.38 1029 10 16 0.00 0.00
9:30 pm 21:30 Cloudy 28 -2 23 -5 80 80 NNW 10 17 30.42 1030 10 16 0.00 0.00
9:57 pm 21:57 Cloudy 29 -1.7 22 -5.6 75 75 NNW 14 22 30.40 1029 10 16 0.00 0.00
10:10 pm 22:10 Cloudy 28 -2 21 -6 74 74 NNW 13 20 30.42 1030 10 16 0.00 0.00
10:57 pm 22:57 Cloudy 29 -1.7 23 -5 78 78 NNW 9 15 30.42 1030 10 16 0.00 0.00
11:57 pm 23:57 Cloudy 29 -1.7 24 -4.4 82 82 NW 5 7 30.43 1031 10 16 0.00 0.00

Powered by AerisWeather